owner,sensor,date,latitude,longitude,vertical_datum,direction_of_sea_water_velocity,sea_water_speed,upward_sea_water_velocity,qcFlag 
TABS,ioos:station:wmo:42045:1,2007-07-01T00:00:00Z,26.2168,-96.4998,2.0,120.8504518,19.09125978,-99999.0,'11111222,11111222,99999999' 
TABS,ioos:station:wmo:42045:1,2007-07-01T00:30:00Z,26.2168,-96.4998,2.0,136.951096,17.65254939,-99999.0,'11111222,11111222,99999999' 
TABS,ioos:station:wmo:42045:1,2007-07-01T01:00:00Z,26.2168,-96.4998,2.0,151.3480281,13.26420748,-99999.0,'11111222,11111222,99999999' 
TABS,ioos:station:wmo:42045:1,2007-07-01T01:30:00Z,26.2168,-96.4998,2.0,176.130614,8.298915592,-99999.0,'11133222,11111222,99999999' 
TABS,ioos:station:wmo:42045:1,2007-07-01T02:00:00Z,26.2168,-96.4998,2.0,195.5077853,9.537221818,-99999.0,'11133222,11111222,99999999' 
TABS,ioos:station:wmo:42045:1,2007-07-01T02:30:00Z,26.2168,-96.4998,2.0,201.1509687,13.74605398,-99999.0,'11111222,11111222,99999999' 
TABS,ioos:station:wmo:42045:1,2007-07-01T03:00:00Z,26.2168,-96.4998,2.0,207.7561262,12.47548396,-99999.0,'11111222,11111222,99999999' 
TABS,ioos:station:wmo:42045:1,2007-07-01T03:30:00Z,26.2168,-96.4998,2.0,216.5616013,15.99823115,-99999.0,'11111222,11111222,99999999' 
TABS,ioos:station:wmo:42045:1,2007-07-01T04:00:00Z,26.2168,-96.4998,2.0,224.5721128,15.16079154,-99999.0,'11111222,11111222,99999999' 
TABS,ioos:station:wmo:42045:1,2007-07-01T04:30:00Z,26.2168,-96.4998,2.0,224.9170067,14.70076529,-99999.0,'11111222,11111222,99999999' 
TABS,ioos:station:wmo:42045:1,2007-07-01T05:00:00Z,26.2168,-96.4998,2.0,225.8971928,16.25130764,-99999.0,'11111222,11111222,99999999' 
TABS,ioos:station:wmo:42045:1,2007-07-01T05:30:00Z,26.2168,-96.4998,2.0,240.1883341,11.76718318,-99999.0,'11111222,11111222,99999999' 
TABS,ioos:station:wmo:42045:1,2007-07-01T06:00:00Z,26.2168,-96.4998,2.0,253.0245457,13.52945306,-99999.0,'11111222,11111222,99999999' 
TABS,ioos:station:wmo:42045:1,2007-07-01T06:30:00Z,26.2168,-96.4998,2.0,253.2549634,13.29367519,-99999.0,'11111222,11111222,99999999' 
TABS,ioos:station:wmo:42045:1,2007-07-01T07:00:00Z,26.2168,-96.4998,2.0,258.0833498,13.89952877,-99999.0,'11111222,11111222,99999999' 
TABS,ioos:station:wmo:42045:1,2007-07-01T07:30:00Z,26.2168,-96.4998,2.0,265.3221722,13.24410812,-99999.0,'11111222,11111222,99999999' 
TABS,ioos:station:wmo:42045:1,2007-07-01T08:00:00Z,26.2168,-96.4998,2.0,278.712897,12.93930833,-99999.0,'11111222,11111222,99999999' 
TABS,ioos:station:wmo:42045:1,2007-07-01T08:30:00Z,26.2168,-96.4998,2.0,279.5250666,7.554137939,-99999.0,'11133222,11111222,99999999' 
TABS,ioos:station:wmo:42045:1,2007-07-01T09:00:00Z,26.2168,-96.4998,2.0,280.7816178,8.713810877,-99999.0,'11133222,11111222,99999999' 
TABS,ioos:station:wmo:42045:1,2007-07-01T09:30:00Z,26.2168,-96.4998,2.0,310.3648631,7.874642849,-99999.0,'11133222,11111222,99999999' 
TABS,ioos:station:wmo:42045:1,2007-07-01T10:00:00Z,26.2168,-96.4998,2.0,284.7831124,9.680418379,-99999.0,'11133222,11111222,99999999' 
TABS,ioos:station:wmo:42045:1,2007-07-01T10:30:00Z,26.2168,-96.4998,2.0,294.0333348,10.73018639,-99999.0,'11111222,11111222,99999999' 
TABS,ioos:station:wmo:42045:1,2007-07-01T11:00:00Z,26.2168,-96.4998,2.0,306.0703901,8.882865529,-99999.0,'11133222,11111222,99999999' 
TABS,ioos:station:wmo:42045:1,2007-07-01T11:30:00Z,26.2168,-96.4998,2.0,293.8561393,11.44804787,-99999.0,'11111222,11111222,99999999' 
TABS,ioos:station:wmo:42045:1,2007-07-01T12:00:00Z,26.2168,-96.4998,2.0,294.9518748,7.941190087,-99999.0,'11133222,11111222,99999999' 
TABS,ioos:station:wmo:42045:1,2007-07-01T12:30:00Z,26.2168,-96.4998,2.0,318.7049345,8.864428916,-99999.0,'11133222,11111222,99999999' 
TABS,ioos:station:wmo:42045:1,2007-07-01T13:00:00Z,26.2168,-96.4998,2.0,330.4366541,11.37032102,-99999.0,'11111222,11111222,99999999' 
TABS,ioos:station:wmo:42045:1,2007-07-01T13:30:00Z,26.2168,-96.4998,2.0,341.9245866,8.573103289,-99999.0,'11133222,11111222,99999999' 
TABS,ioos:station:wmo:42045:1,2007-07-01T14:00:00Z,26.2168,-96.4998,2.0,350.5286287,10.14834962,-99999.0,'11111222,11111222,99999999' 
TABS,ioos:station:wmo:42045:1,2007-07-01T14:30:00Z,26.2168,-96.4998,2.0,0.55111315,8.320384606,-99999.0,'11133222,11111222,99999999' 
TABS,ioos:station:wmo:42045:1,2007-07-01T15:00:00Z,26.2168,-96.4998,2.0,19.10217634,9.778425231,-99999.0,'11133222,11111222,99999999' 
TABS,ioos:station:wmo:42045:1,2007-07-01T15:30:00Z,26.2168,-96.4998,2.0,13.6996182,14.44082061,-99999.0,'11111222,11111222,99999999' 
TABS,ioos:station:wmo:42045:1,2007-07-01T16:00:00Z,26.2168,-96.4998,2.0,8.347923273,13.77595369,-99999.0,'11111222,11111222,99999999' 
TABS,ioos:station:wmo:42045:1,2007-07-01T16:30:00Z,26.2168,-96.4998,2.0,21.66565261,15.65601801,-99999.0,'11111222,11111222,99999999' 
TABS,ioos:station:wmo:42045:1,2007-07-01T17:00:00Z,26.2168,-96.4998,2.0,26.17958109,12.62512574,-99999.0,'11111222,11111222,99999999' 
TABS,ioos:station:wmo:42045:1,2007-07-01T17:30:00Z,26.2168,-96.4998,2.0,18.55607795,13.48081971,-99999.0,'11111222,11111222,99999999' 
TABS,ioos:station:wmo:42045:1,2007-07-01T18:00:00Z,26.2168,-96.4998,2.0,26.17794807,13.89524379,-99999.0,'11111222,11111222,99999999' 
TABS,ioos:station:wmo:42045:1,2007-07-01T18:30:00Z,26.2168,-96.4998,2.0,21.57846289,12.39897173,-99999.0,'11111222,11111222,99999999' 
TABS,ioos:station:wmo:42045:1,2007-07-01T19:00:00Z,26.2168,-96.4998,2.0,22.1290582,13.64511634,-99999.0,'11111222,11111222,99999999' 
TABS,ioos:station:wmo:42045:1,2007-07-01T19:30:00Z,26.2168,-96.4998,2.0,28.22619262,15.58299714,-99999.0,'11111222,11111222,99999999' 
TABS,ioos:station:wmo:42045:1,2007-07-01T20:00:00Z,26.2168,-96.4998,2.0,35.11255701,17.54225185,-99999.0,'11111222,11111222,99999999' 
TABS,ioos:station:wmo:42045:1,2007-07-01T20:30:00Z,26.2168,-96.4998,2.0,37.86988593,19.25493184,-99999.0,'11111222,11111222,99999999' 
TABS,ioos:station:wmo:42045:1,2007-07-01T21:00:00Z,26.2168,-96.4998,2.0,44.00428971,19.93635122,-99999.0,'11111222,11111222,99999999' 
TABS,ioos:station:wmo:42045:1,2007-07-01T21:30:00Z,26.2168,-96.4998,2.0,46.95781235,19.45679316,-99999.0,'11111222,11111222,99999999' 
TABS,ioos:station:wmo:42045:1,2007-07-01T22:00:00Z,26.2168,-96.4998,2.0,52.94306692,18.98410124,-99999.0,'11111222,11111222,99999999' 
TABS,ioos:station:wmo:42045:1,2007-07-01T22:30:00Z,26.2168,-96.4998,2.0,41.6595766,14.6832728,-99999.0,'11111222,11111222,99999999' 
TABS,ioos:station:wmo:42045:1,2007-07-01T23:00:00Z,26.2168,-96.4998,2.0,62.96280478,16.27912774,-99999.0,'11111222,11111222,99999999' 
TABS,ioos:station:wmo:42045:1,2007-07-01T23:30:00Z,26.2168,-96.4998,2.0,67.47253211,16.70463708,-99999.0,'11111222,11111222,99999999' 
TABS,ioos:station:wmo:42045:1,2007-07-02T00:00:00Z,26.2168,-96.4998,2.0,74.30196786,13.04662792,-99999.0,'11111222,11111222,99999999' 
TABS,ioos:station:wmo:42045:1,2007-07-02T00:30:00Z,26.2168,-96.4998,2.0,80.98876342,10.02371688,-99999.0,'11111222,11111222,99999999' 
TABS,ioos:station:wmo:42045:1,2007-07-02T01:00:00Z,26.2168,-96.4998,2.0,88.06768147,7.414216075,-99999.0,'11133222,11111222,99999999' 
TABS,ioos:station:wmo:42045:1,2007-07-02T01:30:00Z,26.2168,-96.4998,2.0,109.6846886,6.234332362,-99999.0,'11133222,11111222,99999999' 
TABS,ioos:station:wmo:42045:1,2007-07-02T02:00:00Z,26.2168,-96.4998,2.0,138.3337376,2.918218635,-99999.0,'11133222,11111222,99999999' 
TABS,ioos:station:wmo:42045:1,2007-07-02T02:30:00Z,26.2168,-96.4998,2.0,167.7149302,4.840847033,-99999.0,'11133222,11111222,99999999' 
TABS,ioos:station:wmo:42045:1,2007-07-02T03:00:00Z,26.2168,-96.4998,2.0,171.4235454,4.35873835,-99999.0,'11133222,11111222,99999999' 
TABS,ioos:station:wmo:42045:1,2007-07-02T03:30:00Z,26.2168,-96.4998,2.0,203.182317,4.699457415,-99999.0,'11133222,11111222,99999999' 
TABS,ioos:station:wmo:42045:1,2007-07-02T04:00:00Z,26.2168,-96.4998,2.0,202.0091797,6.137271381,-99999.0,'11133222,11111222,99999999' 
TABS,ioos:station:wmo:42045:1,2007-07-02T04:30:00Z,26.2168,-96.4998,2.0,219.2632023,6.225431712,-99999.0,'11133222,11111222,99999999' 
TABS,ioos:station:wmo:42045:1,2007-07-02T05:00:00Z,26.2168,-96.4998,2.0,232.1722191,6.342885779,-99999.0,'11133222,11111222,99999999' 
TABS,ioos:station:wmo:42045:1,2007-07-02T05:30:00Z,26.2168,-96.4998,2.0,220.0103334,5.366060007,-99999.0,'11133222,11111222,99999999' 
TABS,ioos:station:wmo:42045:1,2007-07-02T06:00:00Z,26.2168,-96.4998,2.0,231.7713233,9.954797838,-99999.0,'11133222,11111222,99999999' 
TABS,ioos:station:wmo:42045:1,2007-07-02T06:30:00Z,26.2168,-96.4998,2.0,245.0266286,7.887420364,-99999.0,'11133222,11111222,99999999' 
TABS,ioos:station:wmo:42045:1,2007-07-02T07:00:00Z,26.2168,-96.4998,2.0,252.4919992,8.011098551,-99999.0,'11133222,11111222,99999999' 
TABS,ioos:station:wmo:42045:1,2007-07-02T07:30:00Z,26.2168,-96.4998,2.0,250.7132084,7.447986305,-99999.0,'11133222,11111222,99999999' 
TABS,ioos:station:wmo:42045:1,2007-07-02T08:00:00Z,26.2168,-96.4998,2.0,259.1206298,9.90806742,-99999.0,'11133222,11111222,99999999' 
TABS,ioos:station:wmo:42045:1,2007-07-02T08:30:00Z,26.2168,-96.4998,2.0,273.4156267,12.42206102,-99999.0,'11111222,11111222,99999999' 
TABS,ioos:station:wmo:42045:1,2007-07-02T09:00:00Z,26.2168,-96.4998,2.0,280.4632756,11.6741081,-99999.0,'11111222,11111222,99999999' 
TABS,ioos:station:wmo:42045:1,2007-07-02T09:30:00Z,26.2168,-96.4998,2.0,290.4807303,8.860022573,-99999.0,'11133222,11111222,99999999' 
TABS,ioos:station:wmo:42045:1,2007-07-02T10:00:00Z,26.2168,-96.4998,2.0,309.1536204,8.885054868,-99999.0,'11133222,11111222,99999999' 
TABS,ioos:station:wmo:42045:1,2007-07-02T10:30:00Z,26.2168,-96.4998,2.0,312.8046379,11.25833469,-99999.0,'11111222,11111222,99999999' 
TABS,ioos:station:wmo:42045:1,2007-07-02T11:00:00Z,26.2168,-96.4998,2.0,331.6240012,9.763078408,-99999.0,'11133222,11111222,99999999' 
TABS,ioos:station:wmo:42045:1,2007-07-02T11:30:00Z,26.2168,-96.4998,2.0,333.1241334,14.00246407,-99999.0,'11111222,11111222,99999999' 
TABS,ioos:station:wmo:42045:1,2007-07-02T12:00:00Z,26.2168,-96.4998,2.0,344.6195415,12.40426136,-99999.0,'11111222,11111222,99999999' 
TABS,ioos:station:wmo:42045:1,2007-07-02T12:30:00Z,26.2168,-96.4998,2.0,351.8531573,14.3245698,-99999.0,'11111222,11111222,99999999' 
TABS,ioos:station:wmo:42045:1,2007-07-02T13:00:00Z,26.2168,-96.4998,2.0,339.5688269,15.06791293,-99999.0,'11111222,11111222,99999999' 
TABS,ioos:station:wmo:42045:1,2007-07-02T13:30:00Z,26.2168,-96.4998,2.0,346.7137471,14.27201808,-99999.0,'11111222,11111222,99999999' 
TABS,ioos:station:wmo:42045:1,2007-07-02T14:00:00Z,26.2168,-96.4998,2.0,0.525843836,15.26064219,-99999.0,'11111222,11111222,99999999' 
TABS,ioos:station:wmo:42045:1,2007-07-02T14:30:00Z,26.2168,-96.4998,2.0,4.577264213,14.53635787,-99999.0,'11111222,11111222,99999999' 
TABS,ioos:station:wmo:42045:1,2007-07-02T15:00:00Z,26.2168,-96.4998,2.0,9.67844788,14.39487756,-99999.0,'11111222,11111222,99999999' 
TABS,ioos:station:wmo:42045:1,2007-07-02T15:30:00Z,26.2168,-96.4998,2.0,21.88535488,15.23817574,-99999.0,'11111222,11111222,99999999' 
TABS,ioos:station:wmo:42045:1,2007-07-02T16:00:00Z,26.2168,-96.4998,2.0,21.86446207,16.9168555,-99999.0,'11111222,11111222,99999999' 
TABS,ioos:station:wmo:42045:1,2007-07-02T16:30:00Z,26.2168,-96.4998,2.0,22.33656161,17.10328623,-99999.0,'11111222,11111222,99999999' 
TABS,ioos:station:wmo:42045:1,2007-07-02T17:00:00Z,26.2168,-96.4998,2.0,24.16894434,18.61141585,-99999.0,'11111222,11111222,99999999' 
TABS,ioos:station:wmo:42045:1,2007-07-02T17:30:00Z,26.2168,-96.4998,2.0,27.4767698,18.55276799,-99999.0,'11111222,11111222,99999999' 
TABS,ioos:station:wmo:42045:1,2007-07-02T18:00:00Z,26.2168,-96.4998,2.0,30.89496891,21.38417405,-99999.0,'11111222,11111222,99999999' 
TABS,ioos:station:wmo:42045:1,2007-07-02T18:30:00Z,26.2168,-96.4998,2.0,27.93291637,19.29829267,-99999.0,'11111222,11111222,99999999' 
TABS,ioos:station:wmo:42045:1,2007-07-02T19:00:00Z,26.2168,-96.4998,2.0,28.13197641,20.44530508,-99999.0,'11111222,11111222,99999999' 
TABS,ioos:station:wmo:42045:1,2007-07-02T19:30:00Z,26.2168,-96.4998,2.0,35.45345263,19.74003293,-99999.0,'11111222,11111222,99999999' 
TABS,ioos:station:wmo:42045:1,2007-07-02T20:00:00Z,26.2168,-96.4998,2.0,40.22074276,21.3865612,-99999.0,'11111222,11111222,99999999' 
TABS,ioos:station:wmo:42045:1,2007-07-02T20:30:00Z,26.2168,-96.4998,2.0,39.16575997,20.52047027,-99999.0,'11111222,11111222,99999999' 
TABS,ioos:station:wmo:42045:1,2007-07-02T21:00:00Z,26.2168,-96.4998,2.0,40.94625604,20.9048822,-99999.0,'11111222,11111222,99999999' 
TABS,ioos:station:wmo:42045:1,2007-07-02T21:30:00Z,26.2168,-96.4998,2.0,44.74825786,19.30420162,-99999.0,'11111222,11111222,99999999' 
TABS,ioos:station:wmo:42045:1,2007-07-02T22:00:00Z,26.2168,-96.4998,2.0,50.1829991,19.09926177,-99999.0,'11111222,11111222,99999999' 
TABS,ioos:station:wmo:42045:1,2007-07-02T22:30:00Z,26.2168,-96.4998,2.0,57.28176606,18.31606126,-99999.0,'11111222,11111222,99999999' 
TABS,ioos:station:wmo:42045:1,2007-07-02T23:00:00Z,26.2168,-96.4998,2.0,62.45366062,17.23366763,-99999.0,'11111222,11111222,99999999' 
TABS,ioos:station:wmo:42045:1,2007-07-02T23:30:00Z,26.2168,-96.4998,2.0,76.42214474,15.46214086,-99999.0,'11111222,11111222,99999999' 
TABS,ioos:station:wmo:42045:1,2007-07-03T00:00:00Z,26.2168,-96.4998,2.0,86.16533711,14.80314156,-99999.0,'11111222,11111222,99999999' 
TABS,ioos:station:wmo:42045:1,2007-07-03T00:30:00Z,26.2168,-96.4998,2.0,91.8490251,13.01677764,-99999.0,'11111222,11111222,99999999' 
TABS,ioos:station:wmo:42045:1,2007-07-03T01:00:00Z,26.2168,-96.4998,2.0,113.5353279,11.16911814,-99999.0,'11111222,11111222,99999999' 
TABS,ioos:station:wmo:42045:1,2007-07-03T01:30:00Z,26.2168,-96.4998,2.0,126.2152663,11.20473114,-99999.0,'11111222,11111222,99999999' 
TABS,ioos:station:wmo:42045:1,2007-07-03T02:00:00Z,26.2168,-96.4998,2.0,144.7983117,10.30436801,-99999.0,'11111222,11111222,99999999' 
TABS,ioos:station:wmo:42045:1,2007-07-03T02:30:00Z,26.2168,-96.4998,2.0,145.6799804,7.82174533,-99999.0,'11133222,11111222,99999999' 
TABS,ioos:station:wmo:42045:1,2007-07-03T03:00:00Z,26.2168,-96.4998,2.0,166.9354809,8.007252962,-99999.0,'11133222,11111222,99999999' 
TABS,ioos:station:wmo:42045:1,2007-07-03T03:30:00Z,26.2168,-96.4998,2.0,185.9081157,8.937477273,-99999.0,'11133222,11111222,99999999' 
TABS,ioos:station:wmo:42045:1,2007-07-03T04:00:00Z,26.2168,-96.4998,2.0,186.2566109,8.349736523,-99999.0,'11133222,11111222,99999999' 
TABS,ioos:station:wmo:42045:1,2007-07-03T04:30:00Z,26.2168,-96.4998,2.0,199.9473172,8.265911928,-99999.0,'11133222,11111222,99999999' 
TABS,ioos:station:wmo:42045:1,2007-07-03T05:00:00Z,26.2168,-96.4998,2.0,203.0118613,8.876361867,-99999.0,'11133222,11111222,99999999' 
TABS,ioos:station:wmo:42045:1,2007-07-03T05:30:00Z,26.2168,-96.4998,2.0,218.1248824,6.025446042,-99999.0,'11133222,11111222,99999999' 
TABS,ioos:station:wmo:42045:1,2007-07-03T06:00:00Z,26.2168,-96.4998,2.0,209.7676625,6.163286461,-99999.0,'11133222,11111222,99999999' 
TABS,ioos:station:wmo:42045:1,2007-07-03T06:30:00Z,26.2168,-96.4998,2.0,216.3335867,5.772252593,-99999.0,'11133222,11111222,99999999' 
TABS,ioos:station:wmo:42045:1,2007-07-03T07:00:00Z,26.2168,-96.4998,2.0,251.2383388,7.773004567,-99999.0,'11133222,11111222,99999999' 
TABS,ioos:station:wmo:42045:1,2007-07-03T07:30:00Z,26.2168,-96.4998,2.0,250.410119,6.591524862,-99999.0,'11133222,11111222,99999999' 
TABS,ioos:station:wmo:42045:1,2007-07-03T08:00:00Z,26.2168,-96.4998,2.0,259.9658069,6.428320154,-99999.0,'11133222,11111222,99999999' 
TABS,ioos:station:wmo:42045:1,2007-07-03T08:30:00Z,26.2168,-96.4998,2.0,259.909725,8.105356254,-99999.0,'11133222,11111222,99999999' 
TABS,ioos:station:wmo:42045:1,2007-07-03T09:00:00Z,26.2168,-96.4998,2.0,276.5734005,4.892156988,-99999.0,'11133222,11111222,99999999' 
TABS,ioos:station:wmo:42045:1,2007-07-03T09:30:00Z,26.2168,-96.4998,2.0,268.5905096,10.57319725,-99999.0,'11111222,11111222,99999999' 
TABS,ioos:station:wmo:42045:1,2007-07-03T10:00:00Z,26.2168,-96.4998,2.0,279.0289148,11.72527185,-99999.0,'11111222,11111222,99999999' 
TABS,ioos:station:wmo:42045:1,2007-07-03T10:30:00Z,26.2168,-96.4998,2.0,272.092755,9.586391396,-99999.0,'11133222,11111222,99999999' 
TABS,ioos:station:wmo:42045:1,2007-07-03T11:00:00Z,26.2168,-96.4998,2.0,273.0000692,9.172567798,-99999.0,'11133222,11111222,99999999' 
TABS,ioos:station:wmo:42045:1,2007-07-03T11:30:00Z,26.2168,-96.4998,2.0,296.2373851,11.71718823,-99999.0,'11111222,11111222,99999999' 
TABS,ioos:station:wmo:42045:1,2007-07-03T12:00:00Z,26.2168,-96.4998,2.0,304.9175683,8.158737647,-99999.0,'11133222,11111222,99999999' 
TABS,ioos:station:wmo:42045:1,2007-07-03T12:30:00Z,26.2168,-96.4998,2.0,306.0939537,8.266758736,-99999.0,'11133222,11111222,99999999' 
TABS,ioos:station:wmo:42045:1,2007-07-03T13:00:00Z,26.2168,-96.4998,2.0,331.6035126,10.91311596,-99999.0,'11111222,11111222,99999999' 
TABS,ioos:station:wmo:42045:1,2007-07-03T13:30:00Z,26.2168,-96.4998,2.0,327.2549953,10.26057503,-99999.0,'11111222,11111222,99999999' 
TABS,ioos:station:wmo:42045:1,2007-07-03T14:00:00Z,26.2168,-96.4998,2.0,319.7908358,11.26112339,-99999.0,'11111222,11111222,99999999' 
TABS,ioos:station:wmo:42045:1,2007-07-03T14:30:00Z,26.2168,-96.4998,2.0,345.6746865,12.48831854,-99999.0,'11111222,11111222,99999999' 
TABS,ioos:station:wmo:42045:1,2007-07-03T15:00:00Z,26.2168,-96.4998,2.0,348.4261841,11.91222062,-99999.0,'11111222,11111222,99999999' 
TABS,ioos:station:wmo:42045:1,2007-07-03T15:30:00Z,26.2168,-96.4998,2.0,343.9886677,11.89131195,-99999.0,'11111222,11111222,99999999' 
TABS,ioos:station:wmo:42045:1,2007-07-03T16:00:00Z,26.2168,-96.4998,2.0,350.3695527,13.98712622,-99999.0,'11111222,11111222,99999999' 
TABS,ioos:station:wmo:42045:1,2007-07-03T16:30:00Z,26.2168,-96.4998,2.0,354.9884141,15.33864401,-99999.0,'11111222,11111222,99999999' 
TABS,ioos:station:wmo:42045:1,2007-07-03T17:00:00Z,26.2168,-96.4998,2.0,3.32909234,17.91022055,-99999.0,'11111222,11111222,99999999' 
TABS,ioos:station:wmo:42045:1,2007-07-03T17:30:00Z,26.2168,-96.4998,2.0,10.69028352,20.48552904,-99999.0,'11111222,11111222,99999999' 
TABS,ioos:station:wmo:42045:1,2007-07-03T18:00:00Z,26.2168,-96.4998,2.0,21.07549908,20.66212235,-99999.0,'11111222,11111222,99999999' 
TABS,ioos:station:wmo:42045:1,2007-07-03T18:30:00Z,26.2168,-96.4998,2.0,26.40189292,20.39749494,-99999.0,'11111222,11111222,99999999' 
TABS,ioos:station:wmo:42045:1,2007-07-03T19:00:00Z,26.2168,-96.4998,2.0,42.29097556,22.44036542,-99999.0,'11111222,11111222,99999999' 
TABS,ioos:station:wmo:42045:1,2007-07-03T19:30:00Z,26.2168,-96.4998,2.0,44.2864953,23.84549014,-99999.0,'11111222,11111222,99999999' 
TABS,ioos:station:wmo:42045:1,2007-07-03T20:00:00Z,26.2168,-96.4998,2.0,46.25244509,25.23559787,-99999.0,'11111222,11111222,99999999' 
TABS,ioos:station:wmo:42045:1,2007-07-03T20:30:00Z,26.2168,-96.4998,2.0,58.42152511,23.33544086,-99999.0,'11111222,11111222,99999999' 
TABS,ioos:station:wmo:42045:1,2007-07-03T21:00:00Z,26.2168,-96.4998,2.0,65.90303029,23.78251879,-99999.0,'11111222,11111222,99999999' 
TABS,ioos:station:wmo:42045:1,2007-07-03T21:30:00Z,26.2168,-96.4998,2.0,77.37400354,23.65196186,-99999.0,'11111222,11111222,99999999' 
TABS,ioos:station:wmo:42045:1,2007-07-03T22:00:00Z,26.2168,-96.4998,2.0,84.98032681,22.85766611,-99999.0,'11111222,11111222,99999999' 
TABS,ioos:station:wmo:42045:1,2007-07-03T22:30:00Z,26.2168,-96.4998,2.0,87.10873716,22.79902191,-99999.0,'11111222,11111222,99999999' 
TABS,ioos:station:wmo:42045:1,2007-07-03T23:00:00Z,26.2168,-96.4998,2.0,99.84733377,21.28357348,-99999.0,'11111222,11111222,99999999' 
TABS,ioos:station:wmo:42045:1,2007-07-03T23:30:00Z,26.2168,-96.4998,2.0,110.43601,19.56112982,-99999.0,'11111222,11111222,99999999' 
TABS,ioos:station:wmo:42045:1,2007-07-04T00:00:00Z,26.2168,-96.4998,2.0,120.2004005,21.37062002,-99999.0,'11111222,11111222,99999999' 
TABS,ioos:station:wmo:42045:1,2007-07-04T00:30:00Z,26.2168,-96.4998,2.0,132.9477105,21.3258763,-99999.0,'11111222,11111222,99999999' 
TABS,ioos:station:wmo:42045:1,2007-07-04T01:00:00Z,26.2168,-96.4998,2.0,129.6435257,22.64853417,-99999.0,'11111222,11111222,99999999' 
TABS,ioos:station:wmo:42045:1,2007-07-04T01:30:00Z,26.2168,-96.4998,2.0,138.7299995,20.54254366,-99999.0,'11111222,11111222,99999999' 
TABS,ioos:station:wmo:42045:1,2007-07-04T02:00:00Z,26.2168,-96.4998,2.0,153.9077491,18.96250247,-99999.0,'11111222,11111222,99999999' 
TABS,ioos:station:wmo:42045:1,2007-07-04T02:30:00Z,26.2168,-96.4998,2.0,153.2210118,19.17665247,-99999.0,'11111222,11111222,99999999' 
TABS,ioos:station:wmo:42045:1,2007-07-04T03:00:00Z,26.2168,-96.4998,2.0,162.015135,16.0964903,-99999.0,'11111222,11111222,99999999' 
TABS,ioos:station:wmo:42045:1,2007-07-04T03:30:00Z,26.2168,-96.4998,2.0,162.5467765,18.63803906,-99999.0,'11111222,11111222,99999999' 
TABS,ioos:station:wmo:42045:1,2007-07-04T04:00:00Z,26.2168,-96.4998,2.0,168.0116794,18.39109839,-99999.0,'11111222,11111222,99999999' 
TABS,ioos:station:wmo:42045:1,2007-07-04T04:30:00Z,26.2168,-96.4998,2.0,169.8701516,20.18463277,-99999.0,'11111222,11111222,99999999' 
TABS,ioos:station:wmo:42045:1,2007-07-04T05:00:00Z,26.2168,-96.4998,2.0,175.9314028,26.075709,-99999.0,'11111222,11111222,99999999' 
TABS,ioos:station:wmo:42045:1,2007-07-04T05:30:00Z,26.2168,-96.4998,2.0,185.0210234,22.1650626,-99999.0,'11111222,11111222,99999999' 
TABS,ioos:station:wmo:42045:1,2007-07-04T06:00:00Z,26.2168,-96.4998,2.0,199.1655382,19.58557888,-99999.0,'11111222,11111222,99999999' 
TABS,ioos:station:wmo:42045:1,2007-07-04T06:30:00Z,26.2168,-96.4998,2.0,200.0786988,15.32121731,-99999.0,'11111222,11111222,99999999' 
TABS,ioos:station:wmo:42045:1,2007-07-04T07:00:00Z,26.2168,-96.4998,2.0,212.3075479,14.25717013,-99999.0,'11111222,11111222,99999999' 
TABS,ioos:station:wmo:42045:1,2007-07-04T07:30:00Z,26.2168,-96.4998,2.0,238.1995649,16.56681321,-99999.0,'11111222,11111222,99999999' 
TABS,ioos:station:wmo:42045:1,2007-07-04T08:00:00Z,26.2168,-96.4998,2.0,249.3690089,17.08568114,-99999.0,'11111222,11111222,99999999' 
TABS,ioos:station:wmo:42045:1,2007-07-04T08:30:00Z,26.2168,-96.4998,2.0,258.3889113,19.42753201,-99999.0,'11111222,11111222,99999999' 
TABS,ioos:station:wmo:42045:1,2007-07-04T09:00:00Z,26.2168,-96.4998,2.0,267.0474259,21.35834497,-99999.0,'11111222,11111222,99999999' 
TABS,ioos:station:wmo:42045:1,2007-07-04T09:30:00Z,26.2168,-96.4998,2.0,269.8919312,21.29003758,-99999.0,'11111222,11111222,99999999' 
TABS,ioos:station:wmo:42045:1,2007-07-04T10:00:00Z,26.2168,-96.4998,2.0,279.5196628,23.15889678,-99999.0,'11111222,11111222,99999999' 
TABS,ioos:station:wmo:42045:1,2007-07-04T10:30:00Z,26.2168,-96.4998,2.0,282.1077713,25.36419524,-99999.0,'11111222,11111222,99999999' 
TABS,ioos:station:wmo:42045:1,2007-07-04T11:00:00Z,26.2168,-96.4998,2.0,285.7878711,24.92004815,-99999.0,'11111222,11111222,99999999' 
TABS,ioos:station:wmo:42045:1,2007-07-04T11:30:00Z,26.2168,-96.4998,2.0,294.2801246,23.10354085,-99999.0,'11111222,11111222,99999999' 
TABS,ioos:station:wmo:42045:1,2007-07-04T12:00:00Z,26.2168,-96.4998,2.0,293.1865636,24.28118613,-99999.0,'11111222,11111222,99999999' 
TABS,ioos:station:wmo:42045:1,2007-07-04T12:30:00Z,26.2168,-96.4998,2.0,302.0984803,22.26316464,-99999.0,'11111222,11111222,99999999' 
TABS,ioos:station:wmo:42045:1,2007-07-04T13:00:00Z,26.2168,-96.4998,2.0,304.8945114,24.94482912,-99999.0,'11111222,11111222,99999999' 
TABS,ioos:station:wmo:42045:1,2007-07-04T13:30:00Z,26.2168,-96.4998,2.0,316.8836332,21.94630721,-99999.0,'11111222,11111222,99999999' 
TABS,ioos:station:wmo:42045:1,2007-07-04T14:00:00Z,26.2168,-96.4998,2.0,320.2541062,23.47557454,-99999.0,'11111222,11111222,99999999' 
TABS,ioos:station:wmo:42045:1,2007-07-04T14:30:00Z,26.2168,-96.4998,2.0,336.2127071,19.288621,-99999.0,'11111222,11111222,99999999' 
TABS,ioos:station:wmo:42045:1,2007-07-04T15:00:00Z,26.2168,-96.4998,2.0,339.7926977,22.89952401,-99999.0,'11111222,11111222,99999999' 
TABS,ioos:station:wmo:42045:1,2007-07-04T15:30:00Z,26.2168,-96.4998,2.0,345.6105954,22.41314347,-99999.0,'11111222,11111222,99999999' 
TABS,ioos:station:wmo:42045:1,2007-07-04T16:00:00Z,26.2168,-96.4998,2.0,353.6677308,24.66046431,-99999.0,'11111222,11111222,99999999' 